Location: Unspecified
(48.2082°N, 0.0000°E)
Time: 20:22:44
(UTC+00:00)

Tiros 1 despin weight - Pass Details

Date: 26 June 2019
Orbit: 594 x 642 km, 48.2° (Epoch: 16 July)

Event Time Altitude Azimuth Distance (km) Brightness Sun altitude
Rises 23:24:31 0° 260° (W) 2,856 ? -17.9°
Reaches altitude 10° 23:26:49 10° 260° (W) 1,947 ? -18.0°
Maximum altitude 23:31:17 86° 174° (S) 605 ? -18.1°
Drops below altitude 10° 23:35:43 10° 84° (E) 1,931 ? -18.2°
Sets 23:38:00 0° 84° (E) 2,831 ? -18.2°
